#timestamp,LO_Frequency,Hit,StdDev 
1590476415.9,286047001.5,N
1590476435.7,286047004.1,N
1590476455.6,286047002.0,N
1590476475.4,286047002.6,N
1590476495.2,286046999.8,N
1590476515.1,286047002.8,N
1590476516.0,286047002.8,N
1590476535.8,286047002.2,N
1590476555.7,286047002.1,N
1590476575.5,286047001.5,N
1590476595.3,286047001.8,N
1590476615.2,286047002.5,N
1590476635.0,286047004.4,N
1590476635.9,286047004.4,N
1590476655.7,286047003.2,N
1590476675.6,286047001.7,N
1590476695.4,286047001.7,N
1590476715.3,286047004.3,N
1590476735.1,286047001.5,N
1590476736.0,286047001.5,N
1590476755.8,286047001.8,N
1590476775.7,286047001.9,N
1590476795.5,286047001.5,N
1590476815.3,286047002.2,N
1590476835.2,286047000.2,N
1590476855.0,286047002.6,N
1590476855.9,286047002.6,N
1590476875.8,286047002.0,N
1590476895.6,286047002.3,N
1590476915.4,286046999.8,N
1590476935.3,286047002.2,N
1590476955.1,286046999.9,N
1590476975.8,286047000.2,N
1590476995.7,286047001.9,N
1590477015.5,286047001.5,N
1590477035.4,286047001.9,N
1590477055.2,286047001.8,N
1590477075.0,286047002.1,N
1590477075.9,286047002.1,N
1590477095.8,286047001.8,N
1590477115.6,286047002.4,N
1590477135.4,286047002.0,N
1590477155.3,286047003.1,N
1590477175.1,286047003.3,Y
1590477195.9,286047004.0,P
1590477215.7,286047005.9,P
1590477235.5,286047003.5,N
1590477255.4,286047004.1,N
1590477275.2,286047004.1,Y
1590477295.1,286047000.5,P
1590477296.0,286047000.5,N
1590477315.8,286046999.9,N
1590477335.6,286047002.2,N
1590477355.5,286047002.5,N
1590477375.3,286047001.9,N
1590477395.1,286047001.6,N
1590477415.9,286047004.3,Y
1590477435.7,286047001.7,P
1590477455.6,286047001.9,P
1590477475.4,286047000.2,N
1590477495.2,286047004.0,Y
1590477515.1,286047002.8,P
1590477516.0,286047002.8,P
1590477535.8,286047000.1,N
1590477555.7,286046999.9,N
1590477575.5,286047002.7,N
1590477595.3,286046999.9,N
1590477615.2,286047000.1,N
1590477635.9,286047000.4,N
1590477655.7,286046998.5,N
1590477675.6,286047000.6,N
1590477695.4,286046998.8,N
1590477715.2,286046999.2,N
1590477735.1,286046999.2,N
1590477736.0,286046999.2,N
1590477755.8,286046997.5,N
1590477775.7,286046997.3,N
1590477795.5,286046997.3,N
1590477815.3,286046997.6,N
1590477835.2,286046997.7,N
1590477855.0,286046997.2,N
1590477855.9,286046997.2,N
1590477875.7,286046996.6,N
1590477895.6,286046997.0,N
1590477915.4,286046996.7,N
1590477935.3,286046996.7,N
1590477955.1,286046996.9,N
1590477956.0,286046996.9,N
1590477975.8,286046996.6,N
1590477995.7,286046999.1,N
1590478015.5,286046996.6,N
1590478035.3,286046999.6,N
1590478055.2,286046999.3,N
1590478075.0,286046998.5,N
1590478075.9,286046998.5,N
1590478095.8,286046998.5,N
1590478115.6,286046996.7,N
1590478135.4,286046996.6,N
1590478155.3,286046999.6,N
1590478175.1,286046995.9,Y
1590478195.8,286046997.7,P
1590478215.7,286046997.0,P
1590478235.5,286046997.2,P
1590478255.4,286046997.8,Y
1590478275.2,286046999.8,P
1590478295.0,286047000.3,N
1590478295.9,286047000.3,N
1590478315.8,286047002.6,N
1590478335.6,286047002.8,N
1590478355.4,286047004.4,N
1590478375.3,286047004.1,N
1590478395.1,286047002.1,N
1590478415.9,286047003.4,N
1590478435.7,286047004.2,N
1590478455.5,286047003.4,N
1590478475.4,286047001.9,N
1590478495.2,286047002.5,N
1590478515.1,286047004.1,N
1590478516.0,286047004.1,N
1590478535.8,286047003.0,N
1590478555.6,286047003.8,N
1590478575.5,286047003.9,N
1590478595.3,286047002.4,N
1590478615.1,286047002.5,N
1590478635.9,286047000.5,N
1590478655.7,286047000.9,N
1590478675.6,286047000.2,N
1590478695.4,286047002.8,N
1590478715.2,286047002.1,N
1590478735.1,286047003.6,N
1590478736.0,286047003.6,N
1590478755.8,286047003.4,N
1590478775.6,286047002.9,N
1590478795.5,286047011.9,Y
1590478815.3,286047002.0,P
1590478835.2,286047001.9,P
1590478855.9,286047002.3,P
1590478875.7,286047000.4,N
1590478895.6,286047000.0,N
1590478915.4,286047001.2,N
1590478935.2,286046998.5,N
1590478955.1,286046998.4,N
1590478956.0,286046998.4,N
1590478975.8,286046998.9,N
1590478995.7,286046999.2,N
1590479015.5,286046999.5,N
1590479035.3,286046998.9,N
1590479055.2,286046998.8,N
1590479075.9,286046998.0,N
1590479095.7,286046995.5,Y
1590479115.6,286046993.9,P
1590479135.4,286046994.6,N
1590479155.3,286046994.5,N
1590479175.1,286046994.0,N
1590479176.0,286046994.0,N
1590479195.8,286046995.6,N
1590479215.7,286046995.9,N
1590479235.5,286046997.4,N
1590479255.4,286046998.4,N
1590479275.2,286046998.1,N
1590479295.0,286047000.5,N
1590479295.9,286047000.5,N
1590479315.8,286047000.1,N
1590479335.6,286046999.8,N
1590479355.4,286047001.3,N
1590479375.3,286047011.9,Y
1590479395.1,286047005.7,P
1590479445.9,286047005.5,E
1590479455.8,286047003.5,N
1590479475.7,286047000.8,P
1590479495.5,286047000.7,N
1590479515.3,286047000.4,N
1590479535.2,286046998.2,N
1590479555.0,286047001.0,N
1590479555.9,286047001.0,N
1590479575.8,286047001.0,N
1590479595.6,286047000.4,N
1590479615.4,286047000.4,N
1590479635.3,286047002.7,N
1590479655.1,286047002.6,N
1590479675.8,286047000.3,N
1590479695.7,286047002.3,N
1590479715.5,286047001.7,N
1590479735.4,286046999.8,N
1590479755.2,286047000.7,N
1590479775.0,286047000.3,N
1590479775.9,286047000.3,N
1590479795.8,286047000.5,N
1590479815.6,286047000.9,N
1590479835.4,286047001.2,N
1590479855.3,286046999.4,N
1590479875.1,286046999.5,N
1590479895.9,286046998.4,N
1590479915.7,286047000.5,N
1590479935.5,286046998.3,N
1590479955.4,286046999.1,N
1590479975.2,286046996.5,N
1590479995.0,286046999.1,N
1590479995.9,286046999.1,N
